Temperature
3 3 3 3 3 3 2 2 2 2 2 2 2 3 3 2 3 2 3 3 3 3 2 2 2 2 2 2 2 2 2 3 3 3 3 3 3 3
3 3 3 3 2 2 2 2 2 2 1 2 2 2 2 2 2 2 2 2 2 2 2 2 2 2 2 2 2 2 2 2 2 2 2 2 2 2
2 2 2 2 2 2 1 1 1 1 1 2 2 1 2 2 2 2 2 2 2 1 1 1 1 1 1 1 1 1 1 1 1 1 1 1 2 2
2 1 1 1 1 1 1 1 1 1 0 1 1 1 1 1 1 1 1 1 1 1 1 1 1 1 1 1 1 1 1 1 1 1 1 1 1 1
1 1 1 1 1 1 1 0 0 0 -0 -0 0 0 0 0 0 1 1 0 0 0 1 0 0 0 0 0 0 0 0 0 0 0 0 1 1 1
1 1 1 0 0 0 0 -0 -0 -0 -0 -1 -1 -0 -0 -0 -0 -0 -0 -0 -0 -0 -0 -0 -0 -0 -0 -1 -1 -1 -0 -0 -0 -0 -0 0 0 0
0 0 0 0 -0 -0 -0 -0 -1 -1 -1 -1 -1 -1 -1 -1 -1 -1 -1 -1 -1 -1 -1 -1 -1 -1 -1 -1 -1 -1 -1 -1 -1 -1 -0 -0 -0 -0
-0 -0 -0 -0 -0 -1 -1 -1 -1 -1 -1 -1 -1 -1 -1 -1 -1 -2 -2 -2 -2 -1 -1 -1 -1 -1 -1 -1 -1 -1 -1 -1 -1 -1 -1 -1 -0 -0
-1 -1 -1 -1 -1 -1 -1 -1 -1 -1 -2 -2 -2 -2 -2 -2 -2 -2 -2 -2 -2 -2 -2 -2 -2 -2 -2 -2 -2 -2 -2 -2 -2 -2 -1 -1 -1 -1
-1 -1 -1 -1 -1 -1 -1 -1 -1 -2 -2 -2 -2 -2 -2 -2 -2 -2 -2 -2 -2 -2 -3 -2 -2 -2 -2 -2 -2 -2 -2 -2 -2 -2 -2 -2 -1 -1
-2 -2 -2 -2 -2 -2 -2 -2 -2 -2 -2 -2 -2 -2 -2 -2 -3 -3 -3 -3 -3 -3 -3 -3 -3 -3 -2 -2 -2 -2 -2 -2 -2 -2 -2 -2 -2 -2
-2 -2 -2 -2 -2 -2 -2 -2 -2 -2 -2 -2 -2 -2 -3 -3 -3 -3 -3 -3 -4 -4 -3 -4 -3 -4 -4 -3 -3 -3 -3 -3 -3 -2 -2 -2 -2 -2
-2 -2 -2 -2 -3 -3 -3 -3 -3 -3 -3 -3 -3 -3 -3 -3 -3 -3 -3 -4 -4 -4 -4 -4 -4 -4 -4 -4 -3 -3 -3 -3 -3 -3 -3 -3 -3 -3
-3 -3 -3 -3 -3 -3 -3 -3 -3 -3 -3 -3 -3 -3 -3 -3 -3 -3 -3 -4 -4 -4 -4 -4 -4 -4 -4 -4 -4 -4 -3 -4 -4 -3 -3 -3 -3 -3
-3 -3 -3 -3 -3 -3 -3 -4 -4 -4 -4 -4 -4 -4 -4 -4 -4 -4 -4 -4 -4 -4 -4 -4 -4 -4 -5 -5 -4 -4 -4 -4 -4 -4 -4 -4 -4 -3
-4 -4 -4 -4 -4 -4 -4 -4 -4 -4 -4 -4 -4 -4 -4 -4 -4 -4 -4 -4 -4 -4 -4 -4 -4 -5 -5 -5 -5 -4 -4 -5 -4 -4 -4 -4 -4 -4
-4 -4 -4 -4 -4 -4 -4 -4 -4 -4 -4 -4 -4 -4 -4 -4 -4 -4 -4 -5 -5 -4 -4 -4 -4 -5 -5 -5 -5 -4 -4 -4 -5 -5 -4 -4 -4 -4
-4 -4 -4 -4 -4 -4 -4 -4 -4 -4 -4 -4 -4 -5 -5 -5 -5 -5 -5 -5 -5 -5 -5 -5 -5 -5 -5 -5 -5 -5 -5 -5 -5 -5 -5 -5 -5 -4
-5 -5 -5 -5 -5 -5 -5 -5 -5 -5 -5 -5 -5 -5 -5 -5 -5 -5 -5 -5 -5 -5 -5 -5 -5 -5 -5 -5 -5 -5 -5 -5 -5 -5 -5 -5 -5 -5
-5 -5 -5 -5 -5 -5 -5 -5 -5 -5 -5 -5 -5 -5 -5 -5 -5 -5 -5 -5 -5 -5 -5 -5 -5 -5 -6 -6 -5 -5 -5 -5 -5 -5 -5 -5 -5 -5
-5 -5 -5 -5 -5 -5 -5 -5 -5 -5 -5 -5 -5 -5 -5 -5 -5 -5 -5 -5 -5 -5 -5 -5 -5 -5 -5 -6 -6 -5 -5 -5 -5 -5 -5 -5 -5 -5
-5 -5 -5 -5 -5 -5 -5 -5 -5 -5 -5 -5 -5 -5 -5 -5 -5 -5 -5 -5 -5 -5 -5 -5 -5 -5 -5 -6 -6 -5 -5 -5 -5 -5 -5 -5 -5 -5
-5 -5 -5 -5 -5 -5 -5 -5 -5 -5 -5 -5 -5 -5 -5 -5 -5 -5 -5 -5 -5 -5 -5 -5 -5 -5 -6 -6 -6 -6 -5 -5 -5 -5 -5 -5 -5 -5
Wind_Speed
2 3 3 2 2 2 2 2 2 3 3 2 1 1 3 4 6 6 7 8 10 10 10 10 10 10 11 11 12 11 11 12 13 14 15 14 15 15
2 3 3 2 2 2 2 2 2 3 3 2 1 2 4 5 7 7 8 9 10 10 10 10 9 9 10 10 11 11 11 12 13 14 14 15 15 15
3 4 4 3 3 3 3 3 3 3 5 4 2 3 3 4 6 7 7 7 8 10 10 9 9 10 11 10 10 11 11 12 13 13 14 15 15 15
4 4 4 4 4 3 3 3 3 3 4 5 4 3 4 4 4 4 5 7 7 9 9 9 10 10 11 11 11 11 10 11 12 13 14 14 15 15
4 5 5 4 4 3 3 3 3 3 3 4 4 3 3 4 4 4 4 4 7 8 8 8 10 11 11 10 11 11 10 11 12 13 14 14 14 15
3 3 3 4 4 4 4 4 3 3 3 3 4 4 4 3 3 3 3 3 4 6 6 8 9 10 9 10 10 9 10 11 12 13 13 14 14 14
3 3 4 4 6 5 5 4 4 3 3 3 4 4 4 3 3 2 3 4 4 3 3 4 5 5 6 8 8 9 10 11 12 12 13 13 13 14
4 4 4 5 6 8 8 7 6 5 4 4 4 5 5 4 3 3 3 4 4 2 3 5 4 4 4 5 8 10 10 10 11 13 13 13 13 13
4 4 4 4 5 4 6 7 6 8 8 6 6 6 5 4 4 4 4 4 5 4 3 5 4 5 4 6 9 10 10 10 11 12 13 13 13 13
4 4 3 3 4 4 4 4 5 5 6 5 5 6 6 5 5 5 5 4 4 3 2 4 4 4 5 5 8 9 9 10 11 12 12 13 14 13
4 4 4 4 6 7 5 4 4 5 6 8 8 8 9 8 5 2 2 3 5 4 2 2 2 4 4 4 5 7 9 11 12 12 13 13 13 13
3 3 5 6 7 7 4 4 4 4 4 5 5 6 5 5 6 4 3 3 4 3 1 1 2 3 3 2 2 5 7 10 11 12 12 13 13 9
3 3 3 6 7 7 5 4 5 5 3 3 3 3 3 3 3 3 3 4 4 4 2 1 2 2 3 4 4 4 4 5 6 8 10 11 12 9
3 3 3 6 6 5 4 4 6 5 2 2 3 3 3 3 3 3 4 4 5 5 5 4 3 3 3 5 4 3 3 4 4 5 5 9 10 10
3 5 5 6 5 4 5 5 4 2 2 3 3 3 3 3 2 2 2 2 3 4 5 5 4 4 3 4 4 4 4 4 3 3 4 4 4 5
3 4 5 4 4 3 3 3 2 2 2 3 3 3 2 2 2 2 2 2 2 3 3 4 3 3 3 4 5 5 4 3 3 4 4 4 4 4
2 1 1 2 2 2 2 2 2 2 2 2 2 2 2 2 2 2 1 1 2 3 3 2 3 2 3 4 4 5 4 4 3 3 4 4 4 4
2 2 2 2 2 2 2 2 2 2 2 1 2 2 2 2 2 2 2 2 2 3 3 3 2 3 2 2 3 4 3 3 3 3 3 4 5 4
2 2 2 2 2 2 2 2 2 2 2 2 2 2 2 2 2 2 2 2 2 2 2 2 2 2 3 4 3 2 2 3 3 3 3 3 4 5
2 2 3 3 2 2 2 2 2 2 2 2 2 2 2 2 2 2 2 2 2 3 3 2 2 2 3 3 3 4 4 3 3 4 4 3 4 5
2 2 3 3 2 2 2 2 2 2 2 2 2 2 2 2 2 2 2 3 2 2 3 3 3 4 2 1 2 3 3 4 4 3 4 4 4 4
3 3 3 3 2 2 2 2 2 2 2 2 2 2 2 2 2 2 2 2 2 2 3 3 2 2 1 2 3 3 4 4 5 5 5 4 3 3
3 3 3 3 3 2 2 2 2 2 2 2 2 2 2 2 2 2 2 2 2 2 2 2 2 2 2 2 2 3 4 4 4 4 4 5 6 6
Wind_Direction
221 226 231 238 242 247 246 236 224 260 270 262 285 330 332 316 309 306 301 298 297 295 295 299 300 303 307 310 310 310 314 317 317 316 315 313 314 313
225 228 235 238 237 243 243 247 234 236 260 269 283 302 318 312 304 306 298 299 299 297 296 299 302 306 308 310 310 311 314 316 316 315 315 315 314 313
238 234 238 234 231 236 236 234 238 233 256 277 283 305 305 298 303 303 303 298 295 298 298 301 307 305 304 304 306 308 311 314 315 314 315 316 316 315
240 237 239 239 235 233 230 234 238 237 247 273 289 291 288 290 295 300 309 304 301 298 298 300 306 307 306 307 309 308 310 314 315 316 315 315 317 316
244 241 239 236 242 239 235 239 245 258 250 266 280 285 292 298 300 301 305 305 303 295 297 303 306 308 309 312 312 312 315 318 318 317 316 315 317 317
252 247 244 236 237 237 239 239 242 253 260 268 278 287 290 291 289 299 308 303 301 304 304 309 309 307 306 308 311 314 318 319 318 319 319 318 318 319
259 254 250 243 247 244 243 232 234 245 252 263 274 283 282 288 285 289 300 308 302 297 311 309 310 305 305 306 311 315 319 320 320 320 321 320 320 320
256 258 254 249 257 258 256 252 245 241 245 252 263 271 272 276 284 289 299 308 301 300 316 301 299 291 294 299 306 314 317 320 323 326 324 323 322 322
258 260 270 265 263 246 253 259 264 265 256 253 259 264 269 269 268 276 280 284 280 283 303 294 296 293 298 297 303 310 316 324 328 327 326 326 324 322
260 256 255 272 262 251 240 244 251 259 261 260 252 259 262 259 253 260 268 281 285 282 286 285 294 293 304 299 297 309 318 323 324 324 325 327 327 325
263 257 251 258 265 258 248 245 255 263 269 267 263 263 265 266 271 269 266 281 292 289 282 271 288 305 296 285 296 313 320 319 319 321 325 328 329 328
273 263 254 257 264 259 244 239 256 265 274 283 279 274 269 261 261 248 233 253 281 281 263 282 290 321 308 287 296 312 313 312 317 321 324 327 331 333
270 270 265 269 270 263 259 241 255 266 264 266 270 269 271 263 254 250 240 232 249 263 254 280 281 288 279 292 298 290 296 311 317 318 320 324 329 333
261 269 273 279 276 268 264 265 272 280 269 260 270 278 277 272 267 269 266 258 249 253 256 258 263 269 285 293 294 294 300 304 306 306 318 322 325 326
263 272 279 283 280 272 271 272 274 262 257 262 266 271 271 270 281 290 294 297 296 283 268 270 260 265 268 280 287 291 300 297 294 305 312 317 320 327
279 281 284 288 286 271 271 271 258 245 247 254 265 271 280 276 275 277 284 295 301 301 303 297 276 258 273 277 276 283 288 286 301 307 311 314 325 333
284 277 278 286 285 276 268 266 260 258 257 255 259 274 285 287 284 281 283 286 283 289 302 309 314 289 256 262 275 278 283 288 292 307 315 316 319 326
283 278 270 268 266 273 275 275 261 257 253 257 263 269 277 279 283 288 284 279 278 282 290 297 309 317 307 289 253 267 282 289 300 304 304 308 315 323
267 269 269 264 263 270 272 274 275 276 266 251 256 264 268 264 260 265 275 280 284 284 285 284 285 286 299 303 302 295 291 295 300 302 297 298 302 309
268 265 266 262 259 261 266 267 269 268 260 254 257 261 259 257 258 264 267 270 284 291 290 278 265 269 268 279 290 300 302 284 294 296 302 300 297 303
275 268 268 263 260 259 261 259 255 256 258 250 249 254 255 255 256 261 266 277 281 278 277 279 276 296 295 299 301 303 305 312 300 293 300 300 301 310
274 268 266 267 259 254 257 258 256 251 251 251 252 253 253 250 249 253 261 266 273 276 285 291 297 305 297 286 289 298 310 320 329 322 309 293 282 296
279 275 267 270 265 258 252 252 254 255 252 252 253 247 245 254 255 252 251 253 272 279 290 302 315 318 307 286 286 297 304 310 316 325 319 317 297 291
Height
1484 1485 1486 1486 1487 1487 1488 1488 1488 1486 1485 1485 1485 1484 1484 1483 1482 1480 1479 1478 1477 1475 1474 1473 1472 1471 1469 1468 1466 1465 1464 1462 1461 1459 1458 1456 1455 1453
1481 1481 1482 1482 1482 1483 1483 1484 1484 1484 1482 1481 1481 1480 1479 1478 1477 1476 1475 1473 1472 1471 1470 1469 1468 1466 1465 1464 1462 1460 1459 1457 1456 1455 1453 1451 1449 1448
1477 1477 1478 1478 1478 1479 1479 1479 1479 1479 1478 1477 1476 1476 1475 1474 1473 1472 1470 1469 1468 1467 1466 1464 1463 1462 1461 1460 1458 1456 1454 1453 1451 1450 1448 1446 1445 1443
1473 1473 1473 1474 1474 1474 1475 1475 1475 1475 1474 1472 1472 1471 1471 1470 1468 1467 1466 1465 1464 1463 1461 1460 1459 1458 1457 1455 1454 1452 1450 1449 1447 1445 1444 1442 1440 1438
1469 1469 1469 1469 1470 1470 1470 1470 1470 1470 1470 1469 1467 1467 1466 1465 1464 1463 1462 1461 1460 1458 1457 1456 1455 1454 1453 1451 1450 1448 1446 1444 1443 1441 1439 1438 1436 1434
1465 1465 1465 1465 1465 1466 1466 1466 1466 1466 1465 1465 1464 1463 1462 1461 1460 1458 1457 1457 1456 1454 1453 1452 1451 1449 1448 1447 1446 1444 1442 1441 1439 1437 1435 1434 1432 1429
1460 1460 1460 1461 1461 1461 1461 1461 1461 1461 1461 1461 1460 1459 1458 1457 1456 1454 1453 1452 1451 1450 1449 1448 1447 1445 1444 1443 1442 1440 1439 1437 1435 1433 1432 1430 1427 1425
1456 1456 1456 1456 1456 1456 1457 1457 1457 1457 1457 1456 1456 1455 1454 1453 1453 1451 1450 1448 1446 1447 1445 1444 1443 1441 1440 1439 1438 1437 1435 1433 1432 1430 1428 1426 1424 1421
1452 1451 1451 1451 1451 1452 1452 1452 1453 1453 1453 1453 1452 1451 1450 1450 1449 1448 1447 1445 1444 1443 1442 1439 1439 1437 1437 1436 1435 1434 1432 1430 1428 1426 1424 1422 1420 1417
1448 1447 1447 1447 1447 1448 1448 1448 1448 1448 1449 1448 1448 1447 1447 1446 1445 1444 1443 1442 1441 1440 1439 1436 1435 1434 1433 1432 1431 1430 1429 1427 1425 1423 1421 1419 1416 1414
1444 1444 1443 1443 1443 1444 1444 1444 1444 1444 1444 1444 1444 1443 1443 1443 1442 1440 1439 1438 1436 1436 1435 1434 1432 1430 1429 1428 1428 1427 1426 1424 1422 1419 1417 1415 1413 1410
1440 1440 1440 1440 1440 1440 1440 1440 1440 1440 1440 1440 1440 1439 1439 1438 1438 1437 1435 1434 1433 1432 1432 1431 1429 1428 1425 1424 1424 1423 1422 1420 1418 1416 1414 1412 1410 1408
1436 1436 1436 1436 1436 1437 1437 1437 1436 1437 1436 1436 1435 1435 1434 1434 1433 1432 1432 1431 1430 1429 1430 1429 1427 1426 1425 1422 1420 1420 1418 1417 1415 1413 1411 1409 1407 1405
1433 1433 1433 1433 1433 1433 1433 1433 1433 1433 1433 1432 1432 1431 1430 1430 1429 1429 1428 1428 1427 1427 1426 1426 1424 1423 1422 1419 1417 1416 1415 1414 1412 1410 1408 1406 1405 1403
1431 1430 1430 1430 1430 1430 1430 1430 1430 1429 1429 1429 1428 1427 1427 1426 1426 1425 1424 1424 1424 1423 1423 1422 1422 1421 1420 1418 1415 1413 1412 1410 1409 1408 1406 1404 1402 1400
1427 1427 1427 1427 1427 1426 1426 1426 1426 1426 1425 1425 1425 1424 1424 1423 1423 1422 1421 1420 1420 1419 1420 1419 1418 1418 1416 1415 1413 1411 1410 1408 1407 1405 1404 1402 1400 1399
1425 1424 1424 1424 1423 1423 1423 1423 1423 1422 1422 1422 1422 1421 1421 1420 1420 1419 1419 1418 1417 1416 1416 1416 1415 1414 1413 1412 1410 1409 1407 1406 1405 1403 1401 1399 1398 1397
1422 1421 1421 1420 1420 1420 1420 1419 1419 1419 1419 1419 1419 1419 1418 1418 1417 1417 1416 1416 1415 1414 1413 1413 1412 1411 1410 1409 1409 1406 1405 1404 1402 1401 1400 1398 1396 1395
1419 1418 1418 1418 1417 1417 1417 1417 1416 1417 1417 1416 1416 1416 1416 1415 1415 1415 1414 1414 1413 1412 1412 1411 1410 1409 1408 1406 1405 1405 1404 1402 1400 1399 1398 1397 1394 1393
1416 1415 1415 1415 1414 1414 1414 1414 1414 1414 1414 1414 1414 1413 1413 1413 1413 1412 1412 1411 1411 1410 1409 1409 1408 1408 1407 1406 1403 1402 1402 1401 1399 1397 1396 1395 1393 1392
1413 1412 1412 1412 1412 1412 1412 1412 1412 1411 1411 1411 1411 1411 1411 1411 1410 1410 1410 1410 1409 1408 1407 1407 1406 1406 1405 1404 1402 1400 1400 1399 1398 1397 1395 1393 1391 1389
1410 1409 1409 1409 1409 1409 1409 1409 1409 1409 1409 1409 1409 1409 1409 1409 1408 1408 1408 1407 1407 1406 1405 1405 1404 1404 1403 1402 1400 1398 1397 1397 1396 1395 1394 1392 1391 1388
1407 1407 1406 1406 1406 1406 1406 1406 1406 1406 1406 1406 1406 1406 1406 1406 1406 1406 1406 1405 1405 1404 1404 1403 1402 1402 1401 1400 1399 1397 1396 1395 1394 1392 1391 1391 1389 1388